DW1009 Weather Reports


Display with metric or nautical units.
time (UTC)temp
F
wind
direction
speed
MPH
gust
MPH
rain 1hr
in
rain 24hr
in
rain mn
in
humidity
%
barometer
mb
20210411205855 63 209 3.0 9.0 0.00 0.00 0.00 82 1006.5
20210411204404 63 203 4.0 9.0 0.00 0.00 0.00 82 1006.6
20210411203543 63 236 3.0 9.0 0.00 0.00 0.00 83 1006.6
20210411203025 63 234 7.0 8.0 0.00 0.00 0.00 82 1006.7
20210411201405 62 273 4.0 8.0 0.00 0.00 0.00 83 1006.8
20210411200419 62 215 5.0 8.0 0.00 0.00 0.00 83 1006.9
20210411195838 62 304 4.0 7.0 0.00 0.00 0.00 84 1007.1
20210411194416 62 248 4.0 9.0 0.00 0.00 0.00 84 1007.3
20210411193432 62 217 2.0 8.0 0.00 0.00 0.00 83 1007.3
20210411192933 62 249 3.0 9.0 0.00 0.00 0.00 83 1007.5
20210411191412 61 249 5.0 9.0 0.00 0.00 0.00 85 1007.6
20210411190405 61 228 4.0 9.0 0.00 0.00 0.00 85 1008.1
20210411185925 61 214 2.0 9.0 0.00 0.00 0.00 85 1008.1
20210411184414 62 262 7.0 9.0 0.00 0.00 0.00 85 1008.1
20210411183719 61 301 4.0 9.0 0.00 0.00 0.00 85 1007.9
20210411183045 61 333 2.0 8.0 0.00 0.00 0.00 85 1008.3
20210411181405 61 255 5.0 8.0 0.00 0.00 0.00 84 1008.3
20210411180401 61 262 3.0 9.0 0.00 0.00 0.00 84 1008.4
20210411175828 61 217 5.0 10.0 0.00 0.00 0.00 85 1008.4
20210411174404 61 226 4.0 9.0 0.00 0.00 0.00 86 1008.5
20210411173404 61 281 3.0 9.0 0.00 0.00 0.00 85 1008.5
20210411172932 61 245 4.0 7.0 0.00 0.00 0.00 85 1008.4
20210411171400 61 257 3.0 9.0 0.00 0.00 0.00 86 1008.4
20210411170400 61 270 4.0 10.0 0.00 0.00 0.00 86 1008.3
20210411165720 61 269 6.0 8.0 0.00 0.00 0.00 86 1008.2
20210411164359 61 266 6.0 10.0 0.00 0.00 0.00 84 1008.2
20210411163400 61 224 2.0 7.0 0.00 0.00 0.00 86 1008.1
20210411162859 60 242 1.0 7.0 0.00 0.00 0.00 86 1007.9
20210411161404 61 234 3.0 7.0 0.00 0.00 0.00 85 1007.8
20210411160406 61 263 0.0 4.0 0.00 0.00 0.00 83 1007.7
20210411155825 61 159 4.0 4.0 0.00 0.00 0.00 85 1007.6
20210411154359 60 171 1.0 4.0 0.00 0.00 0.00 87 1007.7
20210411153359 59 194 2.0 6.0 0.00 0.00 0.00 88 1007.5
20210411152818 59 246 0.0 4.0 0.00 0.00 0.00 90 1007.7
20210411151359 58 138 1.0 5.0 0.00 0.00 0.00 90 1007.7
20210411150414 58 138 3.0 4.0 0.00 0.00 0.00 90 1007.6
20210411145846 57 107 1.0 4.0 0.00 0.00 0.00 91 1007.5
20210411144359 57 122 1.0 3.0 0.00 0.00 0.00 91 1007.5
20210411143406 56 121 0.0 2.0 0.00 0.00 0.00 92 1007.6
20210411142532 56 111 1.0 2.0 0.00 0.00 0.00 93 1007.5
20210411141403 55 148 1.0 2.0 0.00 0.00 0.00 93 1007.4
20210411140400 55 140 0.0 2.0 0.00 0.00 0.00 93 1007.4
20210411135823 55 152 0.0 2.0 0.00 0.00 0.00 93 1007.3
20210411134359 55 180 1.0 2.0 0.00 0.00 0.00 92 1007.5
20210411133401 55 182 1.0 2.0 0.00 0.00 0.00 93 1007.3
20210411132751 55 163 0.0 3.0 0.00 0.00 0.00 92 1007.4
20210411131359 55 144 2.0 2.0 0.00 0.00 0.00 92 1007.2
20210411130427 55 192 1.0 3.0 0.00 0.00 0.00 92 1007.4
20210411125757 55 189 2.0 3.0 0.00 0.00 0.00 92 1007.0
20210411124359 55 134 0.0 2.0 0.00 0.00 0.00 92 1007.1
20210411123357 55 148 1.0 1.0 0.00 0.00 0.00 92 1007.1
20210411122724 55 144 0.0 0.0 0.00 0.00 0.00 92 1007.0
20210411121356 55 144 0.0 0.0 0.00 0.00 0.00 92 1007.2
20210411120430 56 144 0.0 2.0 0.00 0.00 0.00 92 1006.9
20210411115844 56 107 0.0 2.0 0.00 0.00 0.00 91 1006.9
20210411114408 56 155 1.0 2.0 0.00 0.00 0.00 91 1006.9
20210411113404 56 79 0.0 3.0 0.00 0.00 0.00 91 1006.9
20210411112700 56 119 0.0 3.0 0.00 0.00 0.00 91 1007.0
20210411111425 56 115 1.0 2.0 0.00 0.00 0.00 91 1007.1
20210411110425 56 104 0.0 4.0 0.00 0.00 0.00 91 1007.2
20210411105741 56 42 2.0 4.0 0.00 0.00 0.00 91 1007.3
20210411104356 56 48 1.0 2.0 0.00 0.00 0.00 91 1007.4
20210411103430 56 59 0.0 1.0 0.00 0.00 0.00 90 1007.5
20210411102724 56 79 0.0 2.0 0.00 0.00 0.00 91 1007.5
20210411101425 57 132 0.0 3.0 0.00 0.00 0.00 90 1007.6
20210411100433 57 149 0.0 2.0 0.00 0.00 0.00 91 1007.7
20210411095718 57 117 1.0 3.0 0.00 0.00 0.00 90 1007.7
20210411094434 57 82 1.0 3.0 0.00 0.00 0.00 90 1007.8
20210411093355 57 100 0.0 3.0 0.00 0.00 0.00 90 1007.9
20210411092631 57 80 0.0 7.0 0.00 0.00 0.00 90 1008.0
20210411091424 57 95 1.0 6.0 0.00 0.00 0.00 90 1008.1
20210411090423 58 130 3.0 8.0 0.00 0.00 0.00 90 1008.1
20210411085840 58 244 1.0 6.0 0.00 0.00 0.00 90 1008.3
20210411084427 58 97 0.0 6.0 0.00 0.00 0.00 91 1008.4
20210411083424 58 163 1.0 6.0 0.00 0.00 0.00 91 1008.4
20210411082705 58 102 0.0 7.0 0.00 0.00 0.00 91 1008.5
20210411081423 59 77 3.0 5.0 0.00 0.00 0.00 91 1008.5
20210411080423 59 148 2.0 6.0 0.00 0.00 0.00 91 1008.6
20210411075757 58 117 1.0 2.0 0.00 0.00 0.00 92 1008.7
20210411074354 58 113 0.0 3.0 0.00 0.00 0.00 91 1008.9
20210411073423 58 50 1.0 1.0 0.00 0.00 0.00 90 1008.9
20210411072720 58 50 0.0 2.0 0.00 0.00 0.00 90 1008.9
20210411071452 58 78 0.0 2.0 0.00 0.00 0.00 90 1009.0
20210411070432 58 71 1.0 2.0 0.00 0.00 0.00 91 1009.1
20210411065900 58 17 2.0 3.0 0.00 0.00 0.00 91 1009.1
20210411064424 58 42 0.0 3.0 0.00 0.00 0.00 90 1009.0
20210411063438 58 80 1.0 3.0 0.00 0.00 0.00 91 1008.9
20210411062837 58 57 1.0 2.0 0.00 0.00 0.00 90 1008.7
20210411061423 58 74 1.0 3.0 0.00 0.00 0.00 91 1008.9
20210411060428 58 5 0.0 2.0 0.00 0.00 0.00 90 1008.8
20210411055917 58 261 1.0 2.0 0.00 0.00 0.00 91 1008.7
20210411054436 58 287 0.0 1.0 0.00 0.00 0.00 90 1009.0
20210411053423 58 292 0.0 2.0 0.00 0.00 0.00 90 1008.6
20210411051424 59 210 1.0 3.0 0.00 0.00 0.00 90 1008.8
20210411050354 59 290 1.0 5.0 0.00 0.00 0.00 89 1008.8
20210411044421 59 220 3.0 6.0 0.00 0.00 0.00 89 1008.8
20210411043421 59 234 6.0 9.0 0.00 0.00 0.00 89 1008.8
20210411043040 59 220 4.0 7.0 0.00 0.00 0.00 89 1008.9
20210411041426 59 217 4.0 8.0 0.00 0.00 0.00 89 1008.8
20210411040349 59 233 6.0 8.0 0.00 0.00 0.00 88 1008.8
20210411034427 59 233 1.0 10.0 0.00 0.00 0.00 88 1008.7
20210411033426 59 228 3.0 7.0 0.00 0.00 0.00 88 1008.6
20210411033101 59 239 5.0 8.0 0.00 0.00 0.00 88 1008.6
20210411031427 59 228 2.0 9.0 0.00 0.00 0.00 87 1008.3
20210411030438 60 265 1.0 8.0 0.00 0.00 0.00 87 1008.2
20210411025942 60 246 4.0 10.0 0.00 0.00 0.00 86 1008.1
20210411024421 60 202 5.0 9.0 0.00 0.00 0.00 86 1008.1
20210411023420 60 239 5.0 8.0 0.00 0.00 0.00 84 1008.1
20210411022815 60 240 5.0 8.0 0.00 0.00 0.00 85 1008.1
20210411021419 61 240 1.0 10.0 0.00 0.00 0.00 83 1008.1
20210411020156 61 258 1.0 10.0 0.00 0.00 0.00 78 1007.9
20210411014427 62 271 3.0 10.0 0.00 0.00 0.00 77 1007.8
20210411013425 62 233 4.0 9.0 0.00 0.00 0.00 80 1007.9
20210411012832 62 240 5.0 9.0 0.00 0.00 0.00 80 1008.0
20210411011422 62 207 4.0 8.0 0.00 0.00 0.00 79 1008.0
20210411010449 62 223 6.0 10.0 0.00 0.00 0.00 80 1007.9
20210411010145 63 242 8.0 10.0 0.00 0.00 0.00 79 1008.0
20210411004430 62 263 4.0 12.0 0.00 0.00 0.00 81 1008.0
20210411003425 62 190 4.0 11.0 0.00 0.00 0.00 81 1008.1
20210411002427 63 292 5.0 14.0 0.00 0.00 0.00 81 1008.1
20210411001417 63 177 3.0 12.0 0.00 0.00 0.00 80 1008.1
20210411000422 64 206 8.0 10.0 0.00 0.00 0.00 77 1008.3
20210410235417 63 238 6.0 13.0 0.00 0.00 0.00 77 1008.4
20210410234419 64 288 8.0 14.0 0.00 0.00 0.00 78 1008.3
20210410233421 63 319 3.0 11.0 0.00 0.00 0.00 75 1008.2
20210410232420 64 298 7.0 10.0 0.00 0.00 0.00 75 1008.4
20210410231428 63 302 7.0 12.0 0.00 0.00 0.00 75 1008.4
20210410230417 64 302 7.0 12.0 0.00 0.00 0.00 74 1008.5
20210410225418 63 257 5.0 11.0 0.00 0.00 0.00 76 1008.5
20210410224418 63 248 11.0 12.0 0.00 0.00 0.00 76 1008.6
20210410223417 63 224 7.0 13.0 0.00 0.00 0.00 77 1008.7
20210410222826 63 271 7.0 14.0 0.00 0.00 0.00 76 1008.8
20210410221519 62 259 11.0 13.0 0.00 0.00 0.00 79 1008.9
20210410220417 63 251 10.0 15.0 0.00 0.00 0.00 77 1009.1
20210410215908 63 234 9.0 12.0 0.00 0.00 0.00 76 1009.1
20210410214422 62 247 8.0 13.0 0.00 0.00 0.00 79 1009.1
20210410213421 62 217 7.0 12.0 0.00 0.00 0.00 79 1009.0
20210410212832 62 235 6.0 11.0 0.00 0.00 0.00 79 1009.0
20210410211433 62 247 9.0 12.0 0.00 0.00 0.00 79 1009.2
20210410210423 62 267 4.0 13.0 0.00 0.00 0.00 80 1009.3
20210410210037 61 236 9.0 11.0 0.00 0.00 0.00 80 1009.4